Location: Gibsondale
(40.9931°N, 80.2478°W)
Time: 17:59:28
(UTC+00:00)

IRS-1C Rocket - Pass Details

Date: 29 October 2020
Orbit: 801 x 805 km, 99.0° (Epoch: 24 November)

Event Time Altitude Azimuth Distance (km) Brightness Sun altitude
Rises 23:30:25 0° 163° (SSE) 3,299 7.2 -13.8°
Reaches altitude 10° 23:32:44 10° 163° (SSE) 2,374 6.4 -14.3°
Maximum altitude 23:37:59 87° 76° (ENE) 811 4.0 -15.3°
Drops below altitude 10° 23:43:17 10° 347° (NNW) 2,393 6.7 -16.3°
Sets 23:45:38 0° 347° (NNW) 3,328 7.4 -16.7°
